Regional Weather Roundup
Issued by NWS

Home | Current Version | Previous Version | Graphics & Text | Print | Product List | Glossary On
Versions: 1 2 3 4 5 6 7 8 9 10 11 12 13 14 15 16 17 18 19 20 21 22 23 24 25 26 27 28 29 30 31 32 33 34 35 36 37 38 39 40 41 42 43 44 45 46 47 48 49 50
113
ASUS43 KLOT 280009
RWRIL

ILLINOIS REGIONAL WEATHER ROUNDUP
NATIONAL WEATHER SERVICE CHICAGO/ROMEOVILLE IL
700 PM CDT SUN MAY 27 2018

NOTE: "FAIR" INDICATES FEW OR NO CLOUDS BELOW 12,000 FEET WITH NO
SIGNIFICANT WEATHER AND/OR OBSTRUCTIONS TO VISIBILITY.

* THESE STATIONS ARE NOT UNDER NWS QUALITY CONTROL. THEY ALSO MAY NOT
  REPORT WEATHER SUCH AS PRECIPITATION OR FOG.

ILZ001-002-007-009-015-016-024-280100-
NORTHWEST ILLINOIS

CITY           SKY/WX    TMP DP  RH WIND       PRES   REMARKS
MOLINE         FAIR      85  74  69 SE5       29.82F HX  92
6HR MIN TEMP:  79; 6HR MAX TEMP:  97; 6HR PCP:  0.03;

STERLING*        N/A    N/A N/A N/A MISG        N/A
SAVANNA*       FAIR      89  71  54 W3        29.85R HX  94
$$

ILZ003-004-008-010-011-017-018-280100-
NORTH CENTRAL ILLINOIS

CITY           SKY/WX    TMP DP  RH WIND       PRES   REMARKS
ROCKFORD       PTSUNNY   91  61  36 NW3       29.85F HX  91
6HR MIN TEMP:  90; 6HR MAX TEMP:  97;

FREEPORT*      FAIR      89  64  43 NW7       29.87R HX  90
ROCHELLE*      FAIR      92  61  35 CALM      29.85F HX  92
DE KALB*       FAIR      87  62  42 SE8       29.86F HX  87
PERU*          FAIR      97  58  27 CALM      29.85S HX  96
$$

ILZ005-006-012>014-019>023-280100-
NORTHEAST ILLINOIS

CITY           SKY/WX    TMP DP  RH WIND       PRES   REMARKS
CHICAGO-OHARE  FAIR      91  59  33 E10       29.85S HX  90
6HR MIN TEMP:  91; 6HR MAX TEMP:  97;

CHICAGO-MIDWAY FAIR      90  62  39 E12       29.86R HX  90
6HR MIN TEMP:  90; 6HR MAX TEMP:  96;

AURORA         FAIR      90  63  40 E6        29.85S HX  91
6HR MIN TEMP:  90; 6HR MAX TEMP:  96;

LANSING*       FAIR      88  65  47 E6        29.87R HX  90
JOLIET*        FAIR      95  54  25 CALM      29.86R HX  93
WAUKEGAN       FAIR      80  67  64 SE7       29.85F HX  82
6HR MIN TEMP:  80; 6HR MAX TEMP:  90;

DUPAGE AIRPORT FAIR      90  64  42 SE5       29.85F HX  91
6HR MIN TEMP:  90; 6HR MAX TEMP:  95;

KANKAKEE*      PTSUNNY   93  61  34 SW5       29.86S HX  92
WHEELING       FAIR      90  63  40 SE6       29.87S HX  91
6HR MIN TEMP:  90; 6HR MAX TEMP:  97;

MORRIS*        FAIR      93  54  26 E5        29.84S HX  91
ROMEOVILLE*    FAIR      91  61  35 SE3       29.86S HX  91
$$

LMZ740>746-280100-
SOUTHERN LAKE MICHIGAN

STATION/POSITION SKY/WX   TEMP    WIND        PRES    VSBY  WAVE
                          AIR SEA DIR/SP/G                  HT/PER
                          (F)     (DEG/KT/KT) (MB)    (MI)  (FT/S)
SOUTHERN BUOY              65 47  140/  8/  8 1011.6R         0
WILMETTE HARBOR            66 61  160/  6/  8   N/A           1
HARRISON CRIB              75     120/  7/  8   N/A
BURNHAM HARBOR                     20/  1/  2   N/A
CALUMET HARBOR             74      80/  6/  9 1011.3R
BURNS HARBOR               75      80/  8/ 10 1012.2R
MICHIGAN CITY              80      40/ 10/ 10   N/A
MICHIGAN CITY 6N           74 69  100/  4/  6   N/A           1
ST. JOSEPH                 76 70   30/  4/  4 1011.3          0
$$

ILZ025>027-034>036-040-047-049-050-058-095>099-280100-
WEST-CENTRAL ILLINOIS

CITY           SKY/WX    TMP DP  RH WIND       PRES   REMARKS
QUINCY         CLOUDY    84  65  52 CALM      29.85S HX  86
GALESBURG*     PTSUNNY   87  69  55 CALM      29.87R HX  91
MACOMB*        CLOUDY    85  71  63 CALM      29.87R HX  91
JACKSONVILLE*  MOSUNNY   87  73  62 SE5       29.85R HX  93
PITTSFIELD*    CLOUDY    83  69  62 CALM      29.87R HX  87
$$

ILZ028>032-037-038-041>044-048-051>054-059>061-280100-
CENTRAL ILLINOIS

CITY           SKY/WX    TMP DP  RH WIND       PRES   REMARKS
PONTIAC        FAIR      96  55  24 E6        29.85S HX  94
BLOOMINGTON    FAIR      90  64  42 S7        29.87S HX  91
DECATUR        FAIR      87  67  51 S3        29.86S HX  90
PEORIA         FAIR      90  70  51 NW5       29.85R HX  95
6HR MIN TEMP:  85; 6HR MAX TEMP:  97;

LACON*         FAIR      90  69  49 CALM      29.84R HX  95
LINCOLN*       FAIR      89  72  56 S7        29.85R HX  96
SPRINGFIELD    FAIR      90  71  53 S5        29.85S HX  96
6HR MIN TEMP:  83; 6HR MAX TEMP:  97;

TAYLORVILLE    FAIR      78  73  83 E5        29.86R HX  81
6HR MIN TEMP:  72; 6HR MAX TEMP:  92; 6HR PCP:  0.28;

$$

ILZ033-039-045-046-055>057-062-063-280100-
EAST-CENTRAL ILLINOIS

CITY           SKY/WX    TMP DP  RH WIND       PRES   REMARKS
CHAMPAIGN      FAIR      87  67  51 S7        29.87S HX  90
DANVILLE*      FAIR      89  68  50 SW7       29.86R HX  92
RANTOUL*       FAIR      91  70  50 S5        29.87S HX  97
MATTOON        FAIR      81  70  69 SE5       29.86F HX  84
PARIS*         FAIR      83  73  73 SW3       29.89R HX  89
$$

ILZ079-100>102-280100-
SOUTHWEST ILLINOIS

CITY           SKY/WX    TMP DP  RH WIND       PRES   REMARKS
ALTON          MOSUNNY   72  72 100 SW7       29.86F
BELLEVILLE     TSTM      72  63  73 NE10G28   29.82S
CAHOKIA*       CLOUDY    84  68  58 N3        29.86R HX  87
SPARTA*        MOSUNNY   85  75  72 E3        29.89R HX  93
$$

ILZ064>066-069>071-074>076-080>082-084>086-088>090-092>094-280100-
SOUTH-CENTRAL ILLINOIS

CITY           SKY/WX    TMP DP  RH WIND       PRES   REMARKS
CARBONDALE     FAIR      85  69  58 S3        29.85F HX  89
6HR MIN TEMP:  80; 6HR MAX TEMP:  91; 6HR PCP: TRACE;

CAIRO*         FAIR      89  67  48 E3        29.84F HX  92
EFFINGHAM*     FAIR      83  70  64 SE3       29.89S HX  87
MARION         MOSUNNY   81  70  69 SE6       29.86F HX  84
MT. VERNON     FAIR      83  69  62 E3        29.86S HX  86
CENTRALIA*     CLOUDY    82  72  72 CALM      29.87R HX  86
SALEM*         FAIR      83  74  74 CALM      29.86F HX  89
METROPOLIS*    FAIR      85  69  57 W3        29.86F HX  89
$$

ILZ067-068-072-073-078-083-087-091-280100-
SOUTHEAST ILLINOIS

CITY           SKY/WX    TMP DP  RH WIND       PRES   REMARKS
LAWRENCEVILLE  FAIR      89  62  40 SW3       29.87S HX  89
FLORA*         FAIR      87  70  56 CALM      29.87R HX  92
FAIRFIELD*     FAIR      79  70  74 CALM      29.85S HX  81
HARRISBURG*    FAIR      80  72  77 CALM      29.86F HX  84
ROBINSON*      FAIR      83  72  68 CALM      29.88R HX  88
CARMI*         FAIR      83  71  67 CALM      29.85F HX  88
$$

ABBREVIATIONS USED IN REMARKS
   TC - TEMPERATURE IN CELSIUS
  WCI - WIND CHILL INDEX
   HX - HEAT INDEX
  VSB - VISIBILITY
$$





USA.gov is the U.S. government's official web portal to all federal, state and local government web resources and services.